SCP
0 0 0 0 0 0 0 0 0 0 0 0 0 0 0 0 0 0 0 0 0 0 0 -0 0 -0 0 0 0 0 0 0 0 0 0 0 0 0 0 0 0 0 0
-0 -0 -0 0 0 0 0 0 0 0 0 0 0 0 0 0 0 0 0 0 0 -0 -0 0 0 0 0 0 0 0 0 0 0 0 0 0 0 0 0 0 0 0 0
-0 -0 -0 0 0 0 0 0 0 0 0 0 0 0 0 0 0 0 0 0 0 -0 0 0 0 -0 0 0 -0 0 0 0 0 0 0 0 0 0 0 0 0 0 0
-0 -0 -0 0 0 0 0 0 0 0 0 0 0 0 0 0 0 0 0 0 -0 -0 0 0 0 0 0 0 0 0 0 0 0 0 0 0 0 0 0 0 0 0 0
-0 -0 0 0 0 0 0 0 0 0 0 0 0 0 -0 -0 0 0 -0 0 -0 0 0 -0 -0 0 0 0 0 0 0 0 0 0 0 0 0 0 0 0 0 0 0
-0 -0 0 -0 -0 0 0 0 0 0 0 0 0 0 -0 0 0 0 -0 -0 -0 -0 -0 0 -0 0 0 0 0 0 0 0 0 0 0 0 0 0 0 0 0 0 0
-0 -0 -0 -0 -0 -0 -0 -0 -0 0 -0 0 0 -0 0 0 0 -0 -0 0 0 -0 -0 -0 -0 0 0 0 0 0 0 0 0 0 0 0 0 0 0 0 0 0 0
-0 -0 -0 -0 -0 -0 0 0 -0 0 0 0 0 0 0 -0 0 -0 0 -0 -0 -0 -0 -0 -0 0 0 0 0 0 0 0 0 0 0 0 0 0 0 0 0 0 0
-0 -0 -0 -0 -0 0 -0 0 0 0 0 0 0 0 -0 -0 -0 0 0 -0 0 -0 -0 -0 0 0 0 0 0 0 0 0 0 0 0 0 0 0 0 0 0 0 0
-0 -0 -0 -0 -0 0 0 0 -0 0 0 -0 -0 -0 0 0 -0 0 0 0 0 0 0 0 0 0 0 0 0 0 0 0 0 0 0 0 0 0 0 0 0 0 0
0 -0 -0 -0 0 0 0 0 -0 0 0 0 -0 0 -0 -0 -0 0 0 -0 0 0 0 0 0 0 0 0 0 0 0 0 0 0 0 0 0 0 0 0 0 0 0
-0 0 -0 0 0 -0 -0 0 0 0 0 0 0 0 -0 -0 -0 -0 0 0 0 0 0 -0 0 0 0 0 0 0 0 0 -0 -0 0 -0 0 0 0 0 0 0 0
0 0 -0 -0 0 -0 -0 -0 0 0 0 0 0 -0 -0 -0 -0 -0 0 0 0 0 0 -0 -0 -0 -0 0 -0 -0 0 -0 -0 -0 0 0 0 0 0 0 0 0 0
0 0 -0 0 0 0 0 -0 0 0 -0 0 0 -0 -0 0 0 0 0 0 -0 -0 -0 0 -0 -0 -0 -0 -0 -0 -0 0 0 0 0 0 0 0 0 0 0 0 0
0 -0 0 0 0 0 0 0 0 0 0 -0 0 -0 0 0 -0 0 0 0 0 -0 -0 -0 -0 -0 -0 -0 0 0 -0 0 0 0 0 0 0 0 0 0 0 -0 -0
0 0 0 0 0 0 0 0 0 0 0 0 0 0 0 0 -0 -0 -0 0 -0 -0 0 -0 -0 -0 -0 0 0 0 0 0 0 0 0 -0 0 0 0 -0 -0 -0 0
-0 0 0 0 0 0 0 0 0 0 0 0 0 0 0 0 0 0 0 0 0 0 0 -0 -0 -0 -0 -0 0 0 0 0 0 -0 0 0 0 0 0 -0 -0 -0 -0
0 0 0 0 0 0 0 0 0 0 0 0 0 0 0 0 0 0 -0 0 -0 0 -0 -0 -0 -0 0 -0 0 0 0 -0 0 0 0 0 0 0 -0 -0 -0 -0 -0
0 0 0 0 0 0 0 0 0 0 0 0 0 0 0 0 0 0 0 0 0 0 0 0 -0 -0 0 0 -0 0 0 -0 -0 -0 -0 -0 -0 -0 -0 -0 -0 -0 -0
0 0 0 0 0 0 0 0 0 0 0 0 0 0 0 0 0 0 0 0 0 0 0 0 -0 -0 -0 -0 -0 -0 0 -0 -0 -0 -0 -0 -0 -0 -0 -0 -0 -0 0
0 0 0 0 0 0 0 0 0 0 0 0 0 0 0 0 0 0 0 0 -0 -0 -0 -0 0 0 0 -0 -0 -0 0 0 0 0 0 0 0 0 0 -0 -0 -0 -0
0 0 0 0 0 0 0 0 0 0 0 0 0 0 0 0 0 0 0 -0 -0 -0 -0 -0 -0 0 0 -0 -0 -0 0 -0 -0 -0 -0 -0 -0 -0 0 0 0 0 0
0 0 0 0 0 0 0 0 0 0 0 0 0 0 0 -0 0 0 -0 -0 -0 -0 -0 -0 -0 -0 -0 0 0 0 0 0 0 0 0 0 0 0 0 0 0 0 0
0 0 0 0 0 0 0 0 0 0 0 0 0 0 0 0 0 0 0 0 0 0 0 0 0 -0 0 0 0 0 0 0 0 0 0 0 0 0 0 0 0 0 0
0 0 0 0 0 0 0 0 0 0 0 0 0 0 0 0 0 0 0 0 0 0 0 0 0 0 0 0 0 0 0 0 0 0 0 0 0 0 0 0 0 0 0
0 0 0 0 0 0 0 0 0 0 0 0 0 0 0 0 0 0 0 0 0 0 0 0 0 0 0 0 0 0 0 0 0 0 0 0 0 0 0 0 0 0 0
Wind_Speed_500mb
46 46 45 43 42 39 36 34 29 23 20 21 22 22 20 17 15 13 14 15 15 15 15 16 15 18 20 22 23 22 20 14 15 22 24 23 29 30 36 38 32 34 34
47 46 44 42 39 36 33 28 25 23 25 26 26 21 15 11 12 15 18 21 19 20 19 18 19 20 25 23 20 19 22 20 16 20 30 28 27 25 32 35 35 38 36
44 42 40 36 33 30 29 29 28 27 30 28 22 13 8 7 12 15 18 19 15 24 23 20 20 22 27 25 22 21 20 23 21 25 40 37 32 28 37 41 47 44 62
41 36 33 30 28 29 30 30 30 27 27 24 15 9 3 8 8 4 4 11 12 20 21 21 22 21 21 23 21 19 22 30 33 35 43 40 42 43 46 57 64 69 83
40 39 38 32 29 29 30 30 31 31 26 19 14 5 2 1 1 4 1 5 12 17 21 20 22 22 21 20 19 19 27 36 38 48 50 50 49 59 61 61 81 89 72
41 37 31 28 26 30 27 27 32 31 22 19 13 7 6 7 6 5 1 3 9 16 21 27 25 23 20 19 24 22 30 37 42 57 56 57 61 66 71 80 96 89 82
33 29 25 22 24 30 25 34 35 25 21 17 9 7 8 8 7 7 2 4 10 15 20 24 26 21 18 25 26 28 26 27 35 48 55 64 68 66 80 92 82 75 87
25 23 22 26 29 25 26 35 27 21 18 15 7 4 8 9 7 7 5 8 16 16 16 17 19 25 25 24 31 35 31 27 29 37 44 54 64 70 85 79 84 82 75
21 19 26 28 29 28 31 32 22 20 17 14 5 1 8 8 10 11 9 12 21 19 21 24 18 17 19 22 34 44 42 38 32 33 44 47 62 75 70 66 73 77 70
19 19 26 26 26 24 21 22 22 19 17 13 8 1 6 5 9 12 11 17 20 24 20 13 15 23 25 32 40 46 48 42 38 45 49 47 57 62 64 64 65 63 63
23 23 26 22 24 22 21 16 19 18 18 15 10 2 3 5 7 10 10 11 21 21 29 34 30 30 30 35 38 39 45 42 40 46 52 56 67 62 62 58 41 33 35
32 26 24 21 20 18 14 14 15 18 18 16 12 6 3 5 9 9 10 15 19 27 41 40 35 29 35 41 33 42 50 54 54 58 70 73 59 57 51 48 33 31 28
31 25 19 20 18 13 11 11 13 15 15 16 14 11 9 11 13 9 14 22 22 37 43 46 44 35 33 37 48 50 57 66 66 68 63 52 43 37 42 36 33 37 19
29 27 19 17 17 13 11 12 10 9 13 15 16 15 15 13 15 14 20 29 25 42 47 48 49 48 44 51 50 43 37 47 44 43 39 42 41 44 40 36 34 39 30
30 26 23 15 16 12 13 16 12 9 11 15 17 15 16 14 18 16 22 34 34 42 50 50 49 46 50 48 40 33 33 41 37 38 43 47 41 40 36 37 32 37 30
28 26 22 18 15 13 16 19 17 16 15 19 19 16 15 18 21 21 23 30 32 40 45 49 49 47 45 37 30 32 35 40 38 42 42 39 37 37 34 35 29 32 30
25 26 24 22 21 16 18 21 20 20 20 17 16 16 18 21 22 21 27 32 33 33 41 44 44 48 47 43 34 37 41 40 43 38 37 36 34 34 38 32 31 30 29
26 22 24 23 24 19 14 22 17 15 15 17 17 17 19 20 20 24 29 32 38 35 33 39 39 36 41 43 43 36 34 42 45 42 37 36 37 35 36 33 33 33 32
30 26 23 24 24 22 16 17 19 17 13 15 17 18 20 22 23 23 23 23 29 33 35 36 32 37 35 35 38 47 39 44 48 47 43 41 39 37 36 35 34 37 37
32 28 28 24 24 27 24 19 20 20 15 12 19 16 18 21 22 24 27 27 27 25 25 25 26 28 34 38 38 47 52 50 53 51 46 43 42 41 40 39 40 40 41
29 28 26 26 24 24 28 26 21 20 20 17 13 12 10 10 14 17 21 24 26 28 29 28 27 27 27 28 32 42 50 52 51 51 47 48 46 48 50 47 46 45 45
32 28 27 25 22 22 23 25 27 25 21 20 21 20 18 19 18 17 16 15 16 21 26 30 32 32 31 33 35 37 39 47 56 58 57 56 55 56 54 51 51 50 51
22 31 30 26 25 21 19 18 20 24 26 25 21 26 25 24 23 21 20 21 23 23 24 25 30 36 40 42 43 42 43 47 50 53 57 59 58 58 58 58 58 57 56
23 22 26 26 22 18 17 16 16 19 19 19 20 25 29 30 31 31 31 33 33 34 35 37 36 37 38 41 46 51 54 54 53 55 55 59 62 63 68 63 63 64 65
26 25 24 24 22 19 12 10 9 12 11 15 18 20 22 27 32 33 34 35 36 38 41 43 46 47 49 51 54 53 53 53 56 60 65 67 69 68 66 69 73 74 76
25 24 24 23 23 23 20 17 15 13 9 6 9 14 17 18 13 17 22 25 29 31 33 36 38 38 39 43 47 51 57 62 65 65 68 74 76 79 76 80 81 79 76
Wind_Direction_500mb
132 132 134 137 141 143 142 144 150 163 178 178 173 168 170 177 199 219 234 247 250 246 234 226 213 205 192 189 201 208 202 194 169 178 189 193 191 195 191 187 180 176 179
133 135 139 142 143 143 145 152 160 165 163 160 156 157 165 212 247 260 255 256 252 235 225 220 213 210 205 201 198 195 199 195 176 177 165 161 173 187 187 185 175 170 165
136 138 139 141 145 151 157 158 155 154 152 152 155 167 193 240 275 273 261 248 240 214 217 215 211 205 200 201 205 202 199 188 173 177 164 165 162 173 155 157 158 157 173
138 138 140 142 148 153 155 155 154 153 158 154 162 157 238 286 286 275 254 209 211 208 209 208 204 204 203 201 204 209 198 182 183 167 164 167 165 166 161 165 153 161 149
130 133 132 132 133 147 151 157 156 151 149 151 149 103 34 52 338 46 171 186 188 195 196 194 200 202 202 207 212 198 182 186 176 170 164 161 161 160 158 155 153 147 144
135 138 144 144 141 150 150 160 158 153 152 150 130 88 79 53 56 48 290 185 196 196 195 196 197 198 207 218 191 187 187 186 176 173 170 168 162 160 162 158 155 143 145
147 151 153 147 153 153 148 150 151 152 147 153 126 86 63 46 43 36 74 156 174 183 177 181 181 182 185 172 168 164 177 189 195 182 172 170 168 171 163 154 152 149 154
154 165 153 146 146 158 158 157 153 150 154 165 129 79 37 24 34 49 95 147 150 151 160 167 168 159 153 154 152 141 142 156 174 182 177 172 170 173 163 160 164 160 155
167 166 152 149 148 142 143 158 157 160 170 167 165 28 19 25 64 71 99 145 148 143 142 146 160 172 166 164 151 146 147 159 165 179 179 174 174 171 172 170 156 156 154
174 156 155 157 159 163 166 168 172 169 184 178 206 22 25 52 79 87 97 145 148 147 148 154 154 143 155 158 155 153 148 153 158 166 170 175 176 174 167 164 160 156 160
147 142 151 151 164 168 177 176 186 186 193 194 205 148 68 83 101 98 92 148 154 147 136 126 119 136 144 149 148 152 150 149 155 162 161 158 158 163 163 164 156 158 155
146 133 149 162 168 177 184 180 183 188 192 203 206 191 165 123 121 96 84 136 146 142 132 122 118 132 139 150 148 140 136 138 145 148 150 153 157 161 166 173 167 166 165
158 149 152 159 170 173 185 179 186 193 191 201 203 194 185 152 142 121 112 131 137 141 131 128 128 133 126 135 128 126 136 138 140 144 151 159 163 164 173 175 175 173 160
166 162 170 172 170 168 164 156 168 183 195 195 189 182 176 167 160 145 139 139 139 141 133 130 134 137 140 143 135 136 142 146 150 151 153 158 165 166 168 172 174 177 182
177 175 177 186 167 161 157 145 129 122 144 169 170 168 171 167 160 151 157 155 153 151 143 138 142 142 150 153 160 160 158 160 156 158 161 163 162 167 174 180 184 190 195
181 190 186 197 179 170 157 142 124 117 124 137 145 155 165 158 155 149 151 160 158 160 155 154 156 155 155 158 161 164 167 168 170 169 169 171 174 177 182 187 191 196 202
182 194 203 209 198 188 168 158 143 126 118 122 131 140 147 153 155 152 152 155 162 163 168 166 166 166 169 170 170 173 174 177 178 178 179 180 183 187 193 194 198 203 210
197 201 195 210 203 193 178 175 163 152 140 134 133 132 142 146 155 157 155 154 167 175 180 184 180 181 184 186 185 180 181 185 186 189 191 195 195 195 201 205 210 216 220
202 199 204 219 214 195 183 176 180 171 153 156 153 146 150 155 156 161 167 167 170 180 190 196 194 198 196 194 197 196 195 196 198 201 203 207 210 211 215 218 222 226 227
207 210 198 209 221 206 197 188 187 187 181 167 177 173 160 170 179 179 181 185 189 187 186 186 191 200 206 204 205 209 209 208 211 214 215 218 220 222 225 229 232 235 242
210 214 218 219 218 211 210 207 202 201 203 197 195 201 198 195 195 203 203 203 203 206 205 202 203 202 203 208 216 223 224 223 223 223 223 225 227 230 235 237 239 243 245
208 215 216 215 220 225 225 222 222 220 217 214 218 216 213 219 228 239 241 237 233 231 229 228 227 227 226 225 224 223 225 229 232 232 234 235 236 239 239 241 242 243 245
197 208 215 219 219 219 222 226 228 233 234 233 223 230 227 232 240 249 257 260 256 249 244 243 244 244 243 242 240 241 241 240 238 235 235 237 238 239 241 243 243 244 245
137 165 179 191 205 213 218 223 231 233 228 232 240 244 253 255 258 262 265 267 268 267 263 259 255 252 251 251 252 252 251 248 246 246 248 248 247 246 248 245 245 246 248
131 134 134 132 138 137 140 156 192 218 224 229 236 244 251 257 258 262 265 268 271 273 274 274 272 270 264 258 257 257 258 258 254 255 255 255 254 251 248 250 251 251 254
127 127 127 124 117 116 116 118 119 121 135 159 213 227 235 236 245 257 256 261 261 262 265 267 270 272 274 275 271 267 266 266 263 260 259 258 258 258 254 255 257 257 259
Wind_Speed_850mb
46 46 45 43 42 39 36 34 29 23 20 21 22 22 20 17 15 13 14 15 15 15 15 16 15 18 20 22 23 22 20 14 15 22 24 23 29 30 36 38 32 34 34
47 46 44 42 39 36 33 28 25 23 25 26 26 21 15 11 12 15 18 21 19 20 19 18 19 20 25 23 20 19 22 20 16 20 30 28 27 25 32 35 35 38 36
44 42 40 36 33 30 29 29 28 27 30 28 22 13 8 7 12 15 18 19 15 24 23 20 20 22 27 25 22 21 20 23 21 25 40 37 32 28 37 41 47 44 62
41 36 33 30 28 29 30 30 30 27 27 24 15 9 3 8 8 4 4 11 12 20 21 21 22 21 21 23 21 19 22 30 33 35 43 40 42 43 46 57 64 69 83
40 39 38 32 29 29 30 30 31 31 26 19 14 5 2 1 1 4 1 5 12 17 21 20 22 22 21 20 19 19 27 36 38 48 50 50 49 59 61 61 81 89 72
41 37 31 28 26 30 27 27 32 31 22 19 13 7 6 7 6 5 1 3 9 16 21 27 25 23 20 19 24 22 30 37 42 57 56 57 61 66 71 80 96 89 82
33 29 25 22 24 30 25 34 35 25 21 17 9 7 8 8 7 7 2 4 10 15 20 24 26 21 18 25 26 28 26 27 35 48 55 64 68 66 80 92 82 75 87
25 23 22 26 29 25 26 35 27 21 18 15 7 4 8 9 7 7 5 8 16 16 16 17 19 25 25 24 31 35 31 27 29 37 44 54 64 70 85 79 84 82 75
21 19 26 28 29 28 31 32 22 20 17 14 5 1 8 8 10 11 9 12 21 19 21 24 18 17 19 22 34 44 42 38 32 33 44 47 62 75 70 66 73 77 70
19 19 26 26 26 24 21 22 22 19 17 13 8 1 6 5 9 12 11 17 20 24 20 13 15 23 25 32 40 46 48 42 38 45 49 47 57 62 64 64 65 63 63
23 23 26 22 24 22 21 16 19 18 18 15 10 2 3 5 7 10 10 11 21 21 29 34 30 30 30 35 38 39 45 42 40 46 52 56 67 62 62 58 41 33 35
32 26 24 21 20 18 14 14 15 18 18 16 12 6 3 5 9 9 10 15 19 27 41 40 35 29 35 41 33 42 50 54 54 58 70 73 59 57 51 48 33 31 28
31 25 19 20 18 13 11 11 13 15 15 16 14 11 9 11 13 9 14 22 22 37 43 46 44 35 33 37 48 50 57 66 66 68 63 52 43 37 42 36 33 37 19
29 27 19 17 17 13 11 12 10 9 13 15 16 15 15 13 15 14 20 29 25 42 47 48 49 48 44 51 50 43 37 47 44 43 39 42 41 44 40 36 34 39 30
30 26 23 15 16 12 13 16 12 9 11 15 17 15 16 14 18 16 22 34 34 42 50 50 49 46 50 48 40 33 33 41 37 38 43 47 41 40 36 37 32 37 30
28 26 22 18 15 13 16 19 17 16 15 19 19 16 15 18 21 21 23 30 32 40 45 49 49 47 45 37 30 32 35 40 38 42 42 39 37 37 34 35 29 32 30
25 26 24 22 21 16 18 21 20 20 20 17 16 16 18 21 22 21 27 32 33 33 41 44 44 48 47 43 34 37 41 40 43 38 37 36 34 34 38 32 31 30 29
26 22 24 23 24 19 14 22 17 15 15 17 17 17 19 20 20 24 29 32 38 35 33 39 39 36 41 43 43 36 34 42 45 42 37 36 37 35 36 33 33 33 32
30 26 23 24 24 22 16 17 19 17 13 15 17 18 20 22 23 23 23 23 29 33 35 36 32 37 35 35 38 47 39 44 48 47 43 41 39 37 36 35 34 37 37
32 28 28 24 24 27 24 19 20 20 15 12 19 16 18 21 22 24 27 27 27 25 25 25 26 28 34 38 38 47 52 50 53 51 46 43 42 41 40 39 40 40 41
29 28 26 26 24 24 28 26 21 20 20 17 13 12 10 10 14 17 21 24 26 28 29 28 27 27 27 28 32 42 50 52 51 51 47 48 46 48 50 47 46 45 45
32 28 27 25 22 22 23 25 27 25 21 20 21 20 18 19 18 17 16 15 16 21 26 30 32 32 31 33 35 37 39 47 56 58 57 56 55 56 54 51 51 50 51
22 31 30 26 25 21 19 18 20 24 26 25 21 26 25 24 23 21 20 21 23 23 24 25 30 36 40 42 43 42 43 47 50 53 57 59 58 58 58 58 58 57 56
23 22 26 26 22 18 17 16 16 19 19 19 20 25 29 30 31 31 31 33 33 34 35 37 36 37 38 41 46 51 54 54 53 55 55 59 62 63 68 63 63 64 65
26 25 24 24 22 19 12 10 9 12 11 15 18 20 22 27 32 33 34 35 36 38 41 43 46 47 49 51 54 53 53 53 56 60 65 67 69 68 66 69 73 74 76
25 24 24 23 23 23 20 17 15 13 9 6 9 14 17 18 13 17 22 25 29 31 33 36 38 38 39 43 47 51 57 62 65 65 68 74 76 79 76 80 81 79 76
Wind_Direction_850mb
132 132 134 137 141 143 142 144 150 163 178 178 173 168 170 177 199 219 234 247 250 246 234 226 213 205 192 189 201 208 202 194 169 178 189 193 191 195 191 187 180 176 179
133 135 139 142 143 143 145 152 160 165 163 160 156 157 165 212 247 260 255 256 252 235 225 220 213 210 205 201 198 195 199 195 176 177 165 161 173 187 187 185 175 170 165
136 138 139 141 145 151 157 158 155 154 152 152 155 167 193 240 275 273 261 248 240 214 217 215 211 205 200 201 205 202 199 188 173 177 164 165 162 173 155 157 158 157 173
138 138 140 142 148 153 155 155 154 153 158 154 162 157 238 286 286 275 254 209 211 208 209 208 204 204 203 201 204 209 198 182 183 167 164 167 165 166 161 165 153 161 149
130 133 132 132 133 147 151 157 156 151 149 151 149 103 34 52 338 46 171 186 188 195 196 194 200 202 202 207 212 198 182 186 176 170 164 161 161 160 158 155 153 147 144
135 138 144 144 141 150 150 160 158 153 152 150 130 88 79 53 56 48 290 185 196 196 195 196 197 198 207 218 191 187 187 186 176 173 170 168 162 160 162 158 155 143 145
147 151 153 147 153 153 148 150 151 152 147 153 126 86 63 46 43 36 74 156 174 183 177 181 181 182 185 172 168 164 177 189 195 182 172 170 168 171 163 154 152 149 154
154 165 153 146 146 158 158 157 153 150 154 165 129 79 37 24 34 49 95 147 150 151 160 167 168 159 153 154 152 141 142 156 174 182 177 172 170 173 163 160 164 160 155
167 166 152 149 148 142 143 158 157 160 170 167 165 28 19 25 64 71 99 145 148 143 142 146 160 172 166 164 151 146 147 159 165 179 179 174 174 171 172 170 156 156 154
174 156 155 157 159 163 166 168 172 169 184 178 206 22 25 52 79 87 97 145 148 147 148 154 154 143 155 158 155 153 148 153 158 166 170 175 176 174 167 164 160 156 160
147 142 151 151 164 168 177 176 186 186 193 194 205 148 68 83 101 98 92 148 154 147 136 126 119 136 144 149 148 152 150 149 155 162 161 158 158 163 163 164 156 158 155
146 133 149 162 168 177 184 180 183 188 192 203 206 191 165 123 121 96 84 136 146 142 132 122 118 132 139 150 148 140 136 138 145 148 150 153 157 161 166 173 167 166 165
158 149 152 159 170 173 185 179 186 193 191 201 203 194 185 152 142 121 112 131 137 141 131 128 128 133 126 135 128 126 136 138 140 144 151 159 163 164 173 175 175 173 160
166 162 170 172 170 168 164 156 168 183 195 195 189 182 176 167 160 145 139 139 139 141 133 130 134 137 140 143 135 136 142 146 150 151 153 158 165 166 168 172 174 177 182
177 175 177 186 167 161 157 145 129 122 144 169 170 168 171 167 160 151 157 155 153 151 143 138 142 142 150 153 160 160 158 160 156 158 161 163 162 167 174 180 184 190 195
181 190 186 197 179 170 157 142 124 117 124 137 145 155 165 158 155 149 151 160 158 160 155 154 156 155 155 158 161 164 167 168 170 169 169 171 174 177 182 187 191 196 202
182 194 203 209 198 188 168 158 143 126 118 122 131 140 147 153 155 152 152 155 162 163 168 166 166 166 169 170 170 173 174 177 178 178 179 180 183 187 193 194 198 203 210
197 201 195 210 203 193 178 175 163 152 140 134 133 132 142 146 155 157 155 154 167 175 180 184 180 181 184 186 185 180 181 185 186 189 191 195 195 195 201 205 210 216 220
202 199 204 219 214 195 183 176 180 171 153 156 153 146 150 155 156 161 167 167 170 180 190 196 194 198 196 194 197 196 195 196 198 201 203 207 210 211 215 218 222 226 227
207 210 198 209 221 206 197 188 187 187 181 167 177 173 160 170 179 179 181 185 189 187 186 186 191 200 206 204 205 209 209 208 211 214 215 218 220 222 225 229 232 235 242
210 214 218 219 218 211 210 207 202 201 203 197 195 201 198 195 195 203 203 203 203 206 205 202 203 202 203 208 216 223 224 223 223 223 223 225 227 230 235 237 239 243 245
208 215 216 215 220 225 225 222 222 220 217 214 218 216 213 219 228 239 241 237 233 231 229 228 227 227 226 225 224 223 225 229 232 232 234 235 236 239 239 241 242 243 245
197 208 215 219 219 219 222 226 228 233 234 233 223 230 227 232 240 249 257 260 256 249 244 243 244 244 243 242 240 241 241 240 238 235 235 237 238 239 241 243 243 244 245
137 165 179 191 205 213 218 223 231 233 228 232 240 244 253 255 258 262 265 267 268 267 263 259 255 252 251 251 252 252 251 248 246 246 248 248 247 246 248 245 245 246 248
131 134 134 132 138 137 140 156 192 218 224 229 236 244 251 257 258 262 265 268 271 273 274 274 272 270 264 258 257 257 258 258 254 255 255 255 254 251 248 250 251 251 254
127 127 127 124 117 116 116 118 119 121 135 159 213 227 235 236 245 257 256 261 261 262 265 267 270 272 274 275 271 267 266 266 263 260 259 258 258 258 254 255 257 257 259